Theta_e
293 292 292 292 292 292 292 292 292 293 293 294 295 295 295 298 299 300 301 303 306 308 309 313 314 313 312 312 311 310 310 310 307 297 297 299 297 300 298 298 299 299 297
292 291 291 291 291 291 291 291 292 292 292 292 293 294 294 296 297 297 298 300 303 307 310 312 313 314 313 311 309 308 309 309 307 295 293 293 295 296 297 295 295 296 296
291 290 291 291 291 291 291 291 292 292 292 292 292 292 293 294 296 297 297 298 300 303 309 311 313 313 311 309 307 306 307 306 306 298 291 292 293 293 292 292 292 291 291
290 290 290 291 291 291 291 291 291 291 291 292 292 292 292 293 295 296 297 298 299 303 306 310 312 312 310 308 305 305 304 301 301 299 293 291 292 290 290 288 287 288 288
289 290 290 290 291 290 290 291 291 291 292 292 292 292 293 293 295 296 297 298 298 301 303 310 311 311 310 307 306 304 302 299 297 295 292 291 289 287 289 288 288 287 287
289 289 290 290 290 290 290 291 291 291 292 292 292 292 293 294 295 295 296 296 297 299 301 308 310 309 309 308 306 303 304 299 297 296 294 293 291 289 289 288 289 286 286
289 289 290 290 289 290 290 290 291 292 293 292 292 292 292 294 294 295 295 296 297 300 301 308 309 308 307 307 305 303 300 301 301 299 296 295 291 291 290 289 289 290 289
289 289 289 289 289 290 290 290 291 292 292 292 292 292 293 294 294 295 296 297 298 299 301 308 307 305 305 304 300 299 297 298 298 298 297 295 294 291 292 291 289 288 288
289 289 288 289 289 289 290 290 290 291 291 292 292 292 293 294 295 296 296 297 298 300 303 306 305 303 302 302 298 295 294 294 296 297 296 296 295 294 291 291 288 288 285
289 288 288 289 289 289 290 290 290 290 290 290 291 293 294 296 297 297 298 297 295 296 298 300 301 301 298 298 296 293 290 289 293 291 291 290 291 291 292 293 292 289 287
288 288 289 289 289 290 290 290 290 290 291 290 290 292 293 295 294 296 299 296 294 293 293 294 295 296 294 295 295 292 291 289 288 290 288 288 289 290 290 289 289 290 287
289 289 289 289 289 290 290 290 290 290 290 290 290 289 290 292 293 295 295 296 294 293 290 292 292 292 291 291 292 290 290 289 288 286 285 285 284 284 284 284 284 285 285
289 288 289 289 289 289 290 290 290 290 290 290 289 289 288 289 290 291 291 291 292 290 290 290 290 290 290 288 288 289 289 288 286 286 284 284 284 284 284 284 284 284 284
289 289 289 289 289 289 289 289 289 290 290 290 290 289 289 288 288 288 288 289 290 289 288 288 287 286 286 286 287 287 286 286 286 284 283 282 282 283 283 283 283 282 282
290 290 290 290 290 289 288 288 288 288 288 288 288 288 288 288 287 288 287 287 287 287 287 286 286 285 285 284 285 285 285 285 284 284 284 283 283 282 281 281 281 281 282
292 290 290 290 290 290 289 288 288 288 288 288 287 287 287 287 287 287 287 287 288 288 287 286 285 285 284 283 283 282 282 283 283 283 282 282 281 281 280 280 280 280 280
293 291 290 289 289 289 289 288 288 287 286 286 286 287 287 287 288 288 289 288 287 288 285 284 284 283 282 282 281 280 280 280 281 280 280 280 280 279 278 277 276 277 276
292 292 289 288 288 287 287 287 288 287 286 285 285 286 286 285 285 285 285 286 284 284 283 283 282 282 281 280 279 278 277 277 278 277 277 276 276 275 273 272 271 271 271
287 289 287 286 286 286 286 286 286 286 286 285 284 283 283 284 284 284 285 283 282 281 280 279 279 278 277 277 277 277 277 275 274 274 273 272 271 271 269 269 268 268 268
287 286 286 286 286 285 285 285 285 285 285 284 283 282 283 283 281 280 280 279 278 277 277 277 277 277 277 276 275 273 272 271 271 270 269 269 269 268 268 268 268 267 266
287 286 286 286 286 286 285 284 284 284 283 282 280 280 281 281 278 278 278 278 277 277 276 276 275 274 273 273 272 271 270 269 269 269 269 268 268 268 267 267 267 267 266
286 286 285 285 285 285 285 284 283 283 282 279 277 276 278 279 278 277 276 276 275 275 274 274 272 272 271 271 271 270 270 269 269 268 268 268 268 268 267 267 266 266 266
286 285 285 285 284 284 283 283 281 280 278 276 275 276 276 275 274 273 272 272 272 272 272 272 271 271 270 270 270 269 269 269 268 269 268 268 267 267 267 267 267 266 266
286 285 285 284 283 283 282 281 279 278 276 275 275 275 275 274 274 273 273 272 272 271 271 270 270 270 269 269 269 269 268 268 268 268 268 268 268 267 267 267 266 266 266
286 285 284 283 282 282 280 279 277 276 275 274 274 274 273 273 272 271 271 270 270 270 270 269 269 269 268 268 268 268 268 268 268 268 268 268 268 267 267 267 267 266 266
285 284 284 282 282 281 279 277 276 275 274 273 273 273 272 272 271 270 270 270 269 269 269 268 268 268 268 267 267 267 267 268 268 268 268 268 268 267 267 267 266 266 266
Wind_Speed
25 26 26 27 27 28 29 30 31 31 31 31 29 28 30 27 31 29 29 30 31 32 32 32 34 33 31 34 36 33 29 25 8 8 22 28 40 47 45 45 45 44 41
25 26 27 27 28 28 28 30 30 30 30 30 29 29 29 30 32 33 33 30 31 31 33 32 33 32 31 32 34 35 34 30 22 12 20 24 26 41 43 44 45 42 42
25 26 27 28 27 27 29 29 29 30 31 31 30 30 29 30 28 32 33 35 36 34 32 34 32 34 31 29 32 31 32 31 29 19 11 23 21 35 38 37 40 39 38
25 26 27 27 28 29 30 31 32 31 31 31 30 30 30 30 29 32 34 31 31 30 32 34 34 34 34 32 32 30 28 27 27 20 15 19 21 27 33 29 27 35 34
26 26 27 28 29 29 29 30 31 31 31 30 28 28 28 28 29 29 31 26 25 25 24 29 36 34 34 36 34 30 31 28 23 20 14 13 14 21 32 30 25 25 25
24 25 28 29 29 28 27 28 29 28 28 25 25 25 24 25 23 27 24 22 24 22 24 27 29 33 36 36 38 36 43 34 26 22 19 20 22 24 27 28 24 20 6
23 25 27 27 26 25 29 28 26 21 16 15 19 19 21 21 21 24 28 27 21 23 25 24 27 30 33 36 35 35 37 38 39 36 28 28 24 36 34 28 24 21 11
22 23 26 26 26 26 26 26 22 16 10 7 10 14 15 16 20 22 22 21 21 20 26 30 29 29 31 32 32 26 24 24 27 25 28 25 27 36 37 27 26 22 16
20 23 26 26 24 23 22 24 19 15 11 6 7 10 13 16 17 17 20 18 14 19 26 27 27 28 28 31 30 27 22 17 16 17 18 23 18 24 29 25 25 22 5
21 24 26 25 22 20 20 19 16 16 18 19 17 2 8 10 9 14 18 13 19 22 20 19 20 24 26 32 31 30 25 24 25 23 23 24 24 26 22 18 25 20 11
22 23 23 22 20 18 16 17 16 13 17 21 23 26 23 13 13 14 18 22 21 20 20 16 14 17 29 27 27 29 32 31 32 34 32 29 26 23 16 11 15 19 14
20 21 20 18 18 17 17 16 15 15 17 19 19 20 24 21 15 10 13 17 19 24 21 20 26 29 28 28 28 32 37 35 32 30 28 24 25 21 17 15 13 10 7
18 17 18 18 17 17 18 17 13 16 16 17 17 17 19 24 24 20 21 22 22 28 28 30 31 29 31 35 37 35 32 31 27 24 23 21 19 17 14 12 9 6 4
15 16 17 16 18 22 20 19 17 17 16 16 16 15 17 19 20 22 30 36 39 40 39 37 35 35 34 34 32 31 28 24 23 23 24 21 19 16 14 10 8 6 8
11 11 12 14 14 20 29 24 21 25 19 16 18 18 17 19 23 24 26 26 29 33 36 32 30 30 29 26 26 24 22 23 24 22 22 19 17 14 12 9 9 8 6
9 8 10 10 13 14 17 26 36 35 33 31 30 31 32 32 33 36 36 35 35 36 32 28 25 23 19 18 19 22 24 23 21 21 20 17 14 14 13 11 10 7 6
6 6 8 9 11 11 13 14 15 26 34 33 32 31 31 31 31 32 33 33 31 33 29 23 20 19 19 19 19 20 20 19 19 20 18 16 15 14 13 11 9 9 11
4 4 5 6 9 13 13 14 14 14 15 19 28 27 25 26 25 24 25 28 29 27 24 21 19 19 19 19 18 19 19 19 19 19 18 17 15 14 14 13 12 11 9
7 6 5 5 7 11 13 14 14 13 13 13 15 21 23 23 24 22 24 27 22 20 19 20 20 19 20 20 20 20 19 20 20 20 19 18 16 17 18 15 16 15 11
11 10 9 8 9 10 11 12 12 12 12 12 13 11 11 17 21 20 22 22 22 21 21 23 21 21 21 22 23 23 23 21 21 21 20 20 19 19 19 17 14 12 11
16 14 13 11 10 11 12 12 11 12 11 12 13 10 10 18 18 21 22 22 22 22 22 23 23 23 22 21 21 21 22 22 21 20 20 20 18 19 17 15 13 11 9
21 19 17 16 14 13 12 11 11 11 12 13 14 14 15 20 20 21 21 21 21 22 22 23 23 22 21 20 20 21 21 21 19 19 19 18 17 16 14 12 10 9 9
24 22 20 17 17 15 13 12 12 12 13 14 15 16 17 20 21 22 23 23 23 23 22 22 23 23 21 20 19 18 19 19 18 16 16 15 14 12 11 9 8 7 6
27 25 23 21 20 18 15 14 14 14 16 16 16 17 19 20 21 21 22 22 22 23 23 22 22 21 20 19 18 17 16 16 15 15 14 13 10 8 7 6 5 6 6
29 26 26 25 24 20 19 18 18 19 18 19 21 22 22 23 24 24 24 23 23 24 23 21 20 19 18 17 16 15 14 13 13 11 10 8 7 6 5 5 6 6 6
27 27 27 26 25 23 23 22 22 22 21 22 24 26 27 27 27 26 26 25 24 22 20 19 18 16 15 15 14 12 11 10 9 8 8 7 6 5 4 5 7 7 6
Wind_Direction
303 300 295 292 291 286 281 278 274 270 264 263 257 250 254 256 242 240 239 237 237 230 224 212 206 206 196 198 198 198 199 202 177 178 197 205 201 207 212 213 214 213 214
306 304 301 300 295 289 283 279 275 270 265 262 256 251 249 247 242 242 246 246 241 238 226 216 205 204 197 195 194 196 201 205 199 169 179 182 198 206 209 209 210 214 217
314 312 308 302 300 297 290 286 279 270 264 259 251 245 243 240 238 229 234 240 244 243 235 217 203 199 197 195 195 195 199 197 199 182 160 183 194 197 202 209 209 208 214
319 315 310 311 308 302 296 291 284 275 264 256 246 238 235 237 235 232 232 233 241 240 243 223 206 196 197 192 192 192 191 188 195 187 174 176 181 190 189 179 187 203 203
320 318 317 312 308 305 303 298 289 280 267 253 243 236 232 231 228 228 228 229 235 246 251 235 207 203 194 196 196 191 188 184 184 174 161 162 171 171 182 186 187 188 195
320 324 316 313 311 311 313 311 307 298 281 247 234 229 228 229 228 225 230 233 236 255 244 246 194 196 200 212 210 199 205 186 185 186 184 181 186 186 180 178 169 158 179
320 327 316 318 312 323 327 323 321 322 319 239 230 224 220 226 224 230 228 229 231 240 241 195 183 194 198 205 209 208 206 205 207 199 188 187 175 184 180 171 180 177 180
326 328 319 322 320 331 336 329 337 335 328 272 233 221 218 222 228 232 233 220 234 239 232 182 188 186 197 200 195 191 194 200 206 207 205 190 189 185 181 180 171 154 141
337 328 324 325 325 335 342 338 351 12 15 329 251 227 226 231 226 222 226 229 240 202 188 184 193 192 195 198 179 163 158 154 187 198 198 197 183 188 180 164 152 150 110
340 330 324 332 337 343 354 354 6 43 49 52 56 178 222 221 228 227 179 184 150 146 155 168 190 196 189 188 170 153 128 131 137 131 129 128 146 158 172 184 176 155 130
348 337 334 348 353 357 14 23 24 40 60 56 61 68 76 97 109 154 188 169 147 126 129 141 163 174 163 169 169 156 145 137 132 132 124 122 121 128 140 148 170 179 156
354 341 345 358 1 11 23 22 41 45 52 51 55 57 69 75 76 101 132 140 146 126 118 132 136 143 134 147 150 143 139 133 125 118 113 114 125 131 136 140 148 151 155
6 344 359 12 17 22 24 19 17 39 51 56 51 53 50 68 80 89 101 113 117 109 116 123 127 125 126 122 125 133 135 125 121 113 108 119 131 135 134 125 123 123 105
23 357 12 19 29 37 37 32 27 38 52 54 58 62 61 63 70 83 93 103 110 106 108 106 106 103 103 108 113 114 115 117 114 114 117 120 118 114 109 112 104 95 92
30 20 21 34 37 53 55 47 50 56 62 64 61 60 70 68 74 92 95 97 103 107 104 98 93 91 87 91 93 97 104 106 101 107 107 108 104 104 97 95 93 85 85
34 42 36 36 43 54 63 65 63 69 71 73 80 85 85 93 95 99 102 105 107 107 92 91 88 94 100 98 93 87 89 93 99 104 99 104 102 96 95 87 83 83 80
75 60 75 79 70 53 59 65 78 65 65 65 70 77 88 97 103 104 105 100 100 105 91 87 87 88 87 86 88 88 84 85 94 92 91 91 98 97 96 90 85 75 61
142 127 99 89 96 94 77 70 66 69 70 62 62 69 76 80 84 88 96 103 81 80 84 89 89 88 88 92 92 94 101 106 101 99 97 98 100 101 95 84 81 87 89
184 176 146 121 113 108 100 87 84 79 73 64 56 65 67 69 77 89 106 93 92 89 90 90 94 99 104 108 108 104 103 100 101 101 101 106 110 111 105 96 86 81 71
192 187 167 150 135 126 115 100 92 85 74 59 54 48 67 94 76 72 84 92 93 98 104 106 107 107 107 109 111 112 110 109 110 109 106 103 98 92 88 86 84 73 65
194 186 176 164 156 144 134 122 115 113 102 85 71 69 94 105 97 96 98 99 103 106 108 109 110 111 112 114 114 112 110 107 105 102 97 94 95 93 89 84 75 67 61
197 187 181 175 169 159 148 141 125 123 121 117 108 93 113 117 115 113 111 111 113 116 118 119 116 113 111 109 110 108 104 102 102 103 101 97 93 93 89 80 69 56 36
199 190 183 180 175 170 157 158 146 138 138 139 134 125 123 121 120 118 116 117 117 114 114 112 110 107 106 107 108 106 105 103 102 102 102 100 96 91 84 68 54 46 27
200 195 188 182 179 171 168 157 159 159 152 143 142 136 131 127 125 123 121 120 119 117 116 114 113 111 110 105 101 100 101 105 106 102 97 93 93 92 75 50 28 18 11
195 191 188 182 177 173 168 172 164 158 152 149 147 145 143 139 136 134 132 130 127 126 125 122 117 112 107 104 104 103 99 100 103 99 89 81 90 87 45 8 352 341 337
188 189 186 183 176 179 176 167 163 161 158 157 156 153 151 148 145 142 140 138 135 132 128 124 119 114 111 111 108 104 106 110 101 96 87 79 82 28 357 338 329 323 309